TimeEDT,TemperatureF,Dew PointF,Humidity,Sea Level PressureIn,VisibilityMPH,Wind Direction,Wind SpeedMPH,Gust SpeedMPH,PrecipitationIn,Events,Conditions,WindDirDegrees,DateUTC
12:15 AM,60.8,50.0,68,30.16,10.0,East,5.8,-,N/A,,Overcast,80,2013-05-03 04:15:00
12:35 AM,60.8,50.0,68,30.15,10.0,ENE,10.4,17.3,N/A,,Overcast,70,2013-05-03 04:35:00
12:55 AM,60.8,50.0,68,30.14,10.0,East,8.1,16.1,N/A,,Overcast,80,2013-05-03 04:55:00
1:15 AM,60.8,51.8,72,30.14,10.0,ENE,5.8,-,N/A,,Overcast,70,2013-05-03 05:15:00
1:55 AM,60.8,50.0,68,30.12,10.0,ENE,10.4,18.4,N/A,,Overcast,70,2013-05-03 05:55:00
2:15 AM,60.8,50.0,68,30.12,10.0,East,13.8,19.6,N/A,,Overcast,90,2013-05-03 06:15:00
2:35 AM,60.8,51.8,72,30.11,10.0,East,5.8,-,N/A,,Overcast,90,2013-05-03 06:35:00
2:55 AM,59.0,51.8,77,30.11,7.0,East,10.4,20.7,N/A,,Overcast,90,2013-05-03 06:55:00
3:15 AM,59.0,53.6,82,30.10,5.0,East,8.1,-,N/A,Rain,Rain,80,2013-05-03 07:15:00
3:35 AM,59.0,53.6,82,30.09,10.0,East,9.2,-,N/A,,Overcast,80,2013-05-03 07:35:00
3:55 AM,59.0,51.8,77,30.08,10.0,ENE,9.2,16.1,N/A,,Overcast,70,2013-05-03 07:55:00
4:15 AM,59.0,51.8,77,30.08,10.0,East,12.7,21.9,N/A,,Overcast,80,2013-05-03 08:15:00
4:35 AM,59.0,51.8,77,30.08,10.0,East,10.4,19.6,N/A,,Overcast,90,2013-05-03 08:35:00
4:55 AM,59.0,51.8,77,30.08,10.0,East,10.4,19.6,N/A,,Overcast,80,2013-05-03 08:55:00
5:15 AM,59.0,53.6,82,30.08,5.0,ENE,6.9,18.4,N/A,,Haze,70,2013-05-03 09:15:00
5:35 AM,57.2,53.6,88,30.08,5.0,East,8.1,-,N/A,,Overcast,80,2013-05-03 09:35:00
5:55 AM,57.2,53.6,88,30.07,10.0,East,9.2,18.4,N/A,,Overcast,80,2013-05-03 09:55:00
6:15 AM,59.0,53.6,82,30.08,10.0,ENE,9.2,19.6,N/A,,Overcast,70,2013-05-03 10:15:00
6:35 AM,59.0,53.6,82,30.08,7.0,East,9.2,-,N/A,,Overcast,90,2013-05-03 10:35:00
6:55 AM,59.0,51.8,77,30.09,10.0,East,8.1,-,N/A,,Overcast,80,2013-05-03 10:55:00
7:15 AM,59.0,51.8,77,30.09,10.0,East,10.4,17.3,N/A,,Overcast,80,2013-05-03 11:15:00
7:35 AM,59.0,51.8,77,30.09,10.0,ENE,9.2,-,N/A,,Overcast,70,2013-05-03 11:35:00
7:55 AM,59.0,51.8,77,30.09,10.0,East,9.2,17.3,N/A,,Overcast,80,2013-05-03 11:55:00
8:15 AM,59.0,51.8,77,30.10,10.0,East,8.1,17.3,N/A,,Overcast,80,2013-05-03 12:15:00
8:35 AM,59.0,51.8,77,30.09,7.0,East,11.5,20.7,N/A,,Overcast,80,2013-05-03 12:35:00
8:55 AM,59.0,50.0,72,30.09,10.0,East,11.5,18.4,N/A,,Overcast,80,2013-05-03 12:55:00
9:15 AM,59.0,50.0,72,30.09,10.0,East,12.7,21.9,N/A,,Overcast,80,2013-05-03 13:15:00
9:35 AM,59.0,48.2,67,30.09,10.0,East,9.2,24.2,N/A,,Mostly Cloudy,80,2013-05-03 13:35:00
10:15 AM,60.8,46.4,59,30.09,10.0,East,11.5,17.3,N/A,,Mostly Cloudy,80,2013-05-03 14:15:00
10:35 AM,60.8,44.6,55,30.09,10.0,ENE,15.0,26.5,N/A,,Mostly Cloudy,70,2013-05-03 14:35:00
10:55 AM,62.6,44.6,52,30.09,10.0,East,11.5,23.0,N/A,,Scattered Clouds,90,2013-05-03 14:55:00
11:15 AM,62.6,44.6,52,30.09,10.0,East,15.0,21.9,N/A,,Clear,90,2013-05-03 15:15:00
11:35 AM,62.6,44.6,52,30.09,10.0,ENE,16.1,20.7,N/A,,Scattered Clouds,70,2013-05-03 15:35:00
12:15 PM,62.6,44.6,52,30.09,10.0,East,10.4,20.7,N/A,Rain,Light Rain,80,2013-05-03 16:15:00
12:35 PM,62.6,44.6,52,30.08,10.0,ENE,15.0,20.7,N/A,,Overcast,70,2013-05-03 16:35:00
12:55 PM,60.8,46.4,59,30.08,10.0,East,12.7,23.0,N/A,,Overcast,90,2013-05-03 16:55:00
1:35 PM,59.0,50.0,72,30.07,4.0,East,8.1,20.7,N/A,,Haze,80,2013-05-03 17:35:00
1:55 PM,60.8,51.8,72,30.07,4.0,East,9.2,17.3,N/A,,Haze,80,2013-05-03 17:55:00
2:15 PM,60.8,50.0,68,30.06,10.0,ENE,9.2,24.2,N/A,,Overcast,70,2013-05-03 18:15:00
2:35 PM,60.8,50.0,68,30.05,10.0,East,11.5,20.7,N/A,,Overcast,80,2013-05-03 18:35:00
2:55 PM,60.8,51.8,72,30.05,7.0,ENE,13.8,20.7,N/A,,Overcast,70,2013-05-03 18:55:00
3:15 PM,60.8,51.8,72,30.05,10.0,East,10.4,20.7,N/A,,Overcast,80,2013-05-03 19:15:00
3:35 PM,59.0,51.8,77,30.05,10.0,East,12.7,21.9,N/A,,Overcast,90,2013-05-03 19:35:00
3:55 PM,60.8,50.0,68,30.04,10.0,East,13.8,23.0,N/A,,Overcast,100,2013-05-03 19:55:00
4:15 PM,60.8,51.8,72,30.03,10.0,East,11.5,23.0,N/A,,Overcast,80,2013-05-03 20:15:00
4:35 PM,60.8,51.8,72,30.03,10.0,East,10.4,18.4,N/A,,Overcast,100,2013-05-03 20:35:00
4:55 PM,60.8,51.8,72,30.03,10.0,East,11.5,21.9,N/A,,Overcast,90,2013-05-03 20:55:00
5:15 PM,60.8,50.0,68,30.02,10.0,East,9.2,21.9,N/A,,Overcast,80,2013-05-03 21:15:00
5:35 PM,60.8,50.0,68,30.02,10.0,East,11.5,20.7,N/A,,Overcast,80,2013-05-03 21:35:00
5:55 PM,60.8,51.8,72,30.01,7.0,ENE,10.4,18.4,N/A,,Drizzle,70,2013-05-03 21:55:00
6:15 PM,59.0,51.8,77,30.01,7.0,East,11.5,18.4,N/A,Rain,Light Rain,90,2013-05-03 22:15:00
6:35 PM,59.0,51.8,77,30.01,7.0,East,10.4,19.6,N/A,Rain,Light Rain,80,2013-05-03 22:35:00
6:55 PM,59.0,53.6,82,30.00,10.0,East,9.2,18.4,N/A,,Overcast,80,2013-05-03 22:55:00
7:15 PM,59.0,51.8,77,30.00,10.0,East,6.9,16.1,N/A,,Overcast,80,2013-05-03 23:15:00
7:35 PM,59.0,51.8,77,30.00,10.0,ENE,9.2,18.4,N/A,,Overcast,70,2013-05-03 23:35:00
7:55 PM,59.0,51.8,77,30.00,10.0,East,8.1,19.6,N/A,,Overcast,80,2013-05-03 23:55:00
8:15 PM,59.0,51.8,77,29.99,10.0,East,9.2,27.6,N/A,,Overcast,80,2013-05-04 00:15:00
8:35 PM,59.0,51.8,77,29.99,10.0,East,9.2,21.9,N/A,,Overcast,80,2013-05-04 00:35:00
8:55 PM,59.0,51.8,77,29.99,10.0,East,12.7,20.7,N/A,,Overcast,80,2013-05-04 00:55:00
9:15 PM,59.0,51.8,77,29.99,7.0,East,13.8,24.2,N/A,Rain,Light Rain,80,2013-05-04 01:15:00
9:35 PM,59.0,51.8,77,30.00,10.0,East,10.4,23.0,N/A,,Overcast,90,2013-05-04 01:35:00
9:55 PM,59.0,51.8,77,30.00,10.0,East,15.0,26.5,N/A,,Overcast,100,2013-05-04 01:55:00
10:15 PM,59.0,51.8,77,30.01,10.0,East,9.2,16.1,N/A,,Overcast,90,2013-05-04 02:15:00
10:35 PM,59.0,51.8,77,30.00,10.0,East,11.5,20.7,N/A,,Overcast,90,2013-05-04 02:35:00
10:55 PM,60.8,50.0,68,30.00,10.0,East,13.8,32.2,N/A,,Overcast,90,2013-05-04 02:55:00
11:15 PM,59.0,48.2,67,30.00,10.0,East,13.8,32.2,N/A,,Overcast,80,2013-05-04 03:15:00
11:35 PM,59.0,48.2,67,29.99,10.0,East,10.4,32.2,N/A,,Overcast,90,2013-05-04 03:35:00
11:55 PM,59.0,48.2,67,29.99,10.0,East,12.7,23.0,N/A,,Overcast,90,2013-05-04 03:55:00